Temp
41 40 39 39 40 40 39 38 39 40 40 41 42 42 42 41 41 40 41 40 41 41 41 41 41 42 42 41 40 41 41 41 37 39 42 45 45 47 50 53 54 57 57
40 39 38 38 38 36 36 37 37 37 38 38 39 39 39 38 38 38 37 38 38 39 39 40 40 42 38 38 38 38 37 39 37 35 39 39 40 43 44 46 49 52 53
37 36 35 34 34 33 34 34 35 35 36 37 37 37 36 35 36 37 37 37 38 38 37 37 37 36 34 34 35 35 36 37 36 34 33 38 40 41 40 42 44 45 49
35 33 31 32 32 33 33 33 33 34 34 34 34 35 34 35 35 34 34 36 36 36 36 36 35 34 32 32 33 32 33 31 31 31 31 32 34 38 39 37 37 41 41
32 31 30 31 31 31 31 31 31 32 33 33 32 33 34 34 35 33 33 34 34 33 34 34 34 32 34 33 32 30 30 29 28 28 27 28 29 30 31 35 34 36 38
30 28 30 29 29 29 29 29 30 30 31 31 30 30 30 33 34 34 33 32 32 31 30 30 32 31 31 31 32 33 32 28 28 28 29 28 29 30 32 31 32 31 29
28 28 28 28 27 27 28 27 27 27 28 28 28 28 28 29 33 33 32 31 29 29 29 28 29 30 28 29 31 30 30 31 32 30 26 26 25 29 30 29 30 30 30
27 26 27 26 26 26 26 26 26 26 26 25 26 27 26 28 31 32 30 29 28 28 27 27 26 27 27 28 28 26 26 27 28 29 27 27 29 31 31 31 31 32 34
26 26 26 26 24 24 23 23 24 25 25 25 26 24 24 25 30 31 28 26 26 25 26 26 26 25 28 29 26 23 22 24 29 28 28 29 30 31 30 25 22 21 21
26 25 25 24 23 22 22 22 23 24 25 25 25 24 24 23 28 30 28 24 23 23 24 25 26 25 27 28 24 20 18 22 21 19 20 22 25 24 26 24 21 17 18
23 22 21 22 21 21 20 20 20 20 22 19 21 21 22 23 24 28 28 24 23 20 20 21 22 25 26 26 26 20 21 22 17 15 15 17 18 19 20 21 22 20 18
20 19 18 18 22 20 13 17 17 16 15 15 15 17 19 22 24 26 26 26 25 18 18 20 20 23 23 23 20 22 22 18 12 10 10 11 12 14 16 18 20 21 22
17 15 15 17 18 17 13 15 13 13 12 14 16 13 14 19 19 23 23 23 23 20 20 20 19 20 20 18 18 18 14 11 8 5 6 8 10 13 15 15 16 16 17
13 14 15 15 15 15 18 18 13 10 10 12 10 8 9 13 15 18 19 17 20 18 16 12 15 15 14 14 11 12 10 10 7 6 5 6 9 8 8 11 9 10 10
13 14 15 13 12 14 15 13 15 15 14 5 2 5 1 0 13 21 20 17 15 17 3 -1 2 5 4 4 4 5 6 5 3 4 2 2 3 4 5 7 7 7 6
12 13 12 12 11 12 11 10 18 17 17 18 18 14 10 17 19 21 21 20 19 17 -9 -11 -4 -0 -0 0 -1 -0 1 0 1 1 0 -0 -0 0 1 3 4 4 3
11 11 9 11 11 9 9 8 3 10 16 15 15 15 16 16 17 19 18 17 12 6 -15 -14 -9 -4 -4 -2 -2 -3 -4 -1 -1 -2 -2 -2 -2 -1 -1 -1 0 2 1
5 8 8 7 7 6 7 6 5 1 -2 -1 9 12 13 13 15 16 15 4 -13 -9 -17 -17 -17 -13 -6 -6 -5 -6 -5 -4 -4 -4 -4 -4 -4 -4 -4 -4 -2 -2 -1
6 5 6 6 5 5 5 4 3 2 1 -3 -3 3 3 9 11 11 9 -13 -18 -19 -18 -18 -18 -16 -14 -10 -8 -8 -9 -8 -7 -7 -7 -7 -6 -5 -6 -5 -4 -2 -1
3 4 5 4 2 2 2 0 1 -1 -4 -5 -7 -7 -9 -9 -12 -16 -17 -19 -20 -20 -20 -20 -17 -18 -19 -17 -11 -12 -11 -10 -10 -9 -9 -8 -7 -6 -7 -7 -5 -4 -2
2 -1 2 0 -1 -2 -3 -4 -5 -8 -10 -11 -10 -8 7 -6 -18 -20 -16 -18 -20 -17 -17 -19 -17 -16 -19 -17 -17 -16 -13 -12 -11 -11 -10 -9 -8 -9 -8 -7 -6 -3 1
1 -1 -2 -2 -3 -5 -7 -8 -9 -11 -14 -15 -11 -13 5 -17 -19 -16 -17 -16 -15 -16 -17 -17 -15 -18 -12 -12 -12 -13 -13 -13 -12 -11 -11 -10 -10 -9 -9 -8 -6 -3 2
-2 -3 -4 -6 -6 -5 -10 -14 -15 -17 -15 -16 -18 -15 -19 -17 -17 -18 -16 -15 -16 -15 -16 -21 -17 -12 -12 -15 -13 -12 -13 -13 -12 -10 -11 -11 -11 -10 -9 -8 -4 0 2
-4 -5 -7 -10 -12 -14 -16 -17 -17 -13 -17 -17 -17 -16 -15 -15 -16 -15 -15 -15 -16 -15 -17 -16 -14 -14 -13 -13 -12 -12 -12 -11 -10 -10 -10 -10 -11 -10 -8 -3 1 3 3
-9 -11 -12 -14 -17 -17 -19 -20 -19 -18 -16 -16 -15 -15 -15 -16 -15 -15 -15 -15 -15 -15 -13 -13 -13 -14 -15 -16 -15 -14 -12 -9 -11 -10 -10 -9 -7 -5 -1 0 3 3 3
-15 -17 -19 -20 -21 -21 -20 -18 -17 -16 -16 -15 -15 -15 -15 -15 -14 -14 -14 -16 -15 -13 -14 -12 -13 -15 -15 -14 -13 -10 -8 -4 -3 -1 2 1 1 1 1 1 2 3 3
MSLP
1020.41 1020.38 1020.32 1020.39 1020.54 1020.73 1020.92 1021.11 1021.04 1021.06 1020.97 1020.91 1020.77 1020.70 1020.57 1020.55 1020.80 1020.75 1020.58 1020.39 1020.62 1020.55 1020.48 1020.59 1020.29 1020.19 1019.72 1019.66 1019.60 1019.62 1019.16 1018.65 1017.53 1016.19 1015.93 1014.95 1014.26 1013.32 1012.36 1011.30 1010.22 1009.02 1008.24
1020.81 1020.93 1020.97 1021.12 1021.26 1021.38 1021.51 1021.52 1021.53 1021.61 1021.45 1021.23 1021.02 1021.06 1021.23 1021.38 1021.19 1021.11 1021.28 1021.21 1021.17 1020.93 1021.07 1020.83 1020.84 1020.79 1020.47 1020.44 1019.92 1019.75 1019.77 1019.46 1018.68 1016.81 1016.39 1015.56 1014.97 1014.18 1013.07 1011.87 1010.81 1009.73 1008.80
1021.13 1021.44 1021.56 1021.75 1021.85 1021.91 1021.84 1022.06 1021.97 1022.06 1022.06 1021.85 1021.66 1021.53 1021.83 1021.90 1021.83 1022.02 1021.77 1021.79 1021.73 1021.51 1021.63 1021.41 1021.36 1021.25 1021.29 1021.02 1020.45 1020.46 1019.98 1019.73 1019.27 1018.16 1016.52 1015.82 1015.05 1014.15 1012.83 1012.15 1011.36 1010.25 1009.44
1021.46 1021.86 1022.19 1022.29 1022.33 1022.36 1022.40 1022.40 1022.25 1022.21 1022.09 1022.26 1022.26 1022.03 1022.04 1022.33 1022.29 1022.40 1022.44 1022.29 1022.22 1022.08 1022.04 1022.05 1022.15 1021.81 1021.83 1021.26 1021.01 1020.79 1020.31 1019.83 1019.21 1018.55 1017.35 1016.32 1015.68 1014.51 1013.70 1012.37 1010.38 1010.24 1009.25
1021.80 1022.04 1022.33 1022.54 1022.82 1022.72 1022.61 1022.82 1022.83 1022.60 1022.59 1022.58 1022.71 1022.56 1022.51 1022.42 1022.91 1022.62 1022.90 1022.83 1022.68 1022.66 1022.53 1022.44 1022.31 1022.46 1022.16 1021.81 1021.56 1020.95 1020.43 1019.91 1019.62 1018.77 1017.93 1016.91 1016.12 1015.12 1014.54 1013.49 1012.22 1010.70 1009.40
1021.83 1022.14 1022.34 1022.56 1022.82 1022.95 1022.91 1022.88 1022.96 1023.08 1023.24 1023.27 1023.00 1022.98 1023.07 1023.06 1023.09 1022.93 1023.07 1023.20 1023.00 1023.14 1022.95 1022.77 1022.65 1022.63 1022.45 1022.12 1021.61 1021.32 1020.97 1020.24 1020.05 1019.41 1018.45 1017.47 1016.74 1016.15 1015.08 1014.31 1013.16 1011.42 1009.08
1021.82 1022.24 1022.46 1022.64 1023.02 1023.47 1023.36 1023.30 1023.40 1023.32 1023.46 1023.78 1023.72 1023.65 1023.67 1023.56 1023.46 1023.42 1023.38 1023.58 1023.37 1023.50 1023.38 1023.24 1022.85 1022.82 1022.69 1021.92 1021.43 1021.18 1020.89 1020.64 1020.47 1019.86 1019.29 1018.84 1017.59 1016.98 1015.75 1014.22 1013.13 1012.00 1010.40
1021.78 1022.34 1022.79 1022.95 1023.25 1023.61 1023.67 1023.54 1023.60 1023.62 1023.73 1024.24 1024.54 1024.40 1024.08 1024.06 1023.77 1023.69 1023.81 1023.85 1023.67 1023.82 1023.71 1023.52 1023.36 1023.12 1022.43 1021.64 1021.17 1021.05 1020.97 1020.67 1020.36 1020.27 1020.12 1019.16 1018.36 1017.08 1016.23 1014.74 1013.09 1011.18 1009.46
1021.92 1022.34 1022.72 1022.81 1023.39 1023.80 1023.87 1024.01 1024.01 1023.93 1023.80 1024.16 1024.68 1024.56 1024.39 1024.46 1024.23 1023.83 1024.00 1023.86 1023.83 1023.90 1023.76 1023.67 1023.45 1022.97 1022.17 1021.49 1021.37 1021.23 1021.21 1020.85 1020.55 1020.31 1019.77 1018.92 1017.98 1017.14 1016.36 1015.20 1013.80 1012.40 1010.07
1021.65 1022.14 1022.50 1023.01 1023.14 1023.70 1024.13 1024.01 1024.14 1023.93 1024.01 1024.61 1024.75 1024.51 1024.66 1024.94 1024.58 1024.09 1023.98 1024.04 1023.92 1024.05 1023.97 1023.67 1023.11 1022.75 1022.39 1022.07 1021.82 1021.73 1021.21 1020.71 1020.43 1019.85 1019.42 1018.63 1017.84 1016.99 1016.29 1015.87 1015.05 1013.91 1012.07
1021.80 1022.52 1022.91 1023.51 1023.70 1023.65 1024.24 1024.46 1024.15 1023.97 1024.65 1024.57 1024.70 1024.68 1024.87 1024.99 1024.90 1024.49 1024.19 1024.09 1024.04 1024.38 1024.14 1023.75 1023.57 1023.08 1022.69 1022.44 1022.19 1022.17 1021.58 1020.94 1020.77 1020.57 1020.01 1019.02 1018.09 1017.18 1016.28 1015.64 1015.13 1014.42 1012.83
1022.05 1022.86 1023.42 1023.72 1023.67 1024.33 1024.26 1024.06 1024.16 1024.64 1024.76 1024.81 1024.80 1024.91 1025.21 1025.27 1025.05 1024.75 1024.60 1024.22 1024.17 1024.57 1024.53 1024.33 1024.10 1023.53 1023.30 1023.05 1022.73 1022.26 1021.92 1021.76 1021.57 1021.07 1020.14 1019.16 1018.27 1017.33 1016.46 1015.51 1014.55 1013.74 1012.93
1022.46 1023.16 1023.58 1023.91 1024.42 1024.07 1023.80 1024.25 1024.75 1024.91 1024.95 1025.14 1025.52 1025.68 1025.62 1025.58 1025.44 1025.11 1024.99 1024.68 1024.67 1024.62 1024.57 1024.50 1024.44 1023.99 1023.78 1023.55 1023.30 1022.82 1022.67 1022.46 1022.12 1021.35 1020.49 1019.73 1018.96 1017.78 1016.73 1015.39 1014.19 1013.01 1011.44
1022.93 1023.36 1023.58 1023.90 1024.05 1023.95 1023.93 1024.33 1024.74 1025.20 1025.24 1025.57 1025.93 1026.07 1025.95 1025.75 1025.60 1025.28 1025.02 1025.03 1024.75 1024.58 1024.68 1025.24 1024.79 1024.50 1024.27 1024.11 1023.86 1023.67 1023.60 1023.26 1022.63 1021.86 1020.97 1020.12 1019.11 1018.18 1017.07 1015.98 1014.42 1012.69 1010.85
1023.01 1023.28 1023.47 1023.54 1023.55 1024.17 1024.22 1024.63 1024.92 1025.28 1025.23 1025.66 1026.16 1026.12 1025.93 1025.84 1025.63 1024.88 1024.64 1024.47 1024.31 1024.47 1025.14 1025.60 1025.44 1025.16 1024.88 1024.63 1024.46 1024.32 1023.92 1023.63 1022.97 1022.41 1021.50 1020.42 1019.44 1018.48 1017.44 1016.43 1015.22 1013.41 1012.13
1023.24 1023.25 1023.32 1023.23 1023.51 1024.36 1024.75 1024.95 1025.04 1025.32 1025.37 1025.45 1025.60 1025.66 1025.81 1025.69 1025.39 1024.92 1024.68 1024.61 1024.67 1024.76 1026.05 1026.78 1026.47 1026.02 1025.61 1025.15 1024.89 1024.64 1024.33 1023.88 1023.19 1022.64 1021.86 1021.13 1020.09 1018.97 1017.73 1016.80 1015.76 1014.27 1012.48
1022.95 1023.26 1023.40 1023.67 1024.26 1024.74 1025.11 1025.31 1025.61 1025.70 1025.48 1025.69 1025.72 1025.78 1025.69 1025.72 1025.50 1025.03 1024.96 1024.99 1025.71 1025.93 1027.16 1027.32 1027.14 1026.70 1026.14 1025.64 1025.24 1024.98 1024.47 1023.99 1023.46 1022.78 1022.16 1021.42 1020.50 1019.44 1018.25 1016.96 1015.74 1014.36 1012.58
1023.27 1023.50 1023.92 1024.39 1024.62 1024.97 1025.34 1025.69 1025.99 1026.17 1026.37 1026.26 1026.12 1025.90 1025.81 1026.01 1025.74 1025.24 1025.46 1026.44 1027.00 1026.98 1027.45 1027.55 1027.25 1026.82 1026.29 1025.86 1025.50 1025.13 1024.63 1024.07 1023.51 1022.86 1022.31 1021.62 1020.69 1019.70 1018.33 1017.10 1015.86 1014.51 1012.86
1023.70 1024.14 1024.46 1024.75 1025.08 1025.40 1025.80 1026.15 1026.39 1026.55 1026.70 1026.76 1026.66 1026.47 1026.91 1026.50 1025.96 1025.94 1026.23 1027.15 1027.88 1027.91 1027.86 1027.69 1026.95 1026.59 1026.22 1025.87 1025.43 1024.98 1024.58 1024.01 1023.39 1022.82 1022.22 1021.50 1020.54 1019.63 1018.36 1017.26 1015.89 1014.47 1012.98
1024.25 1024.59 1024.75 1025.09 1025.58 1025.84 1026.05 1026.43 1026.70 1026.92 1027.00 1026.97 1027.13 1027.32 1027.28 1027.26 1027.02 1027.15 1027.05 1027.21 1027.48 1027.42 1027.02 1026.95 1026.52 1026.25 1025.94 1025.51 1025.08 1024.69 1024.25 1023.69 1023.08 1022.48 1021.81 1021.12 1020.26 1019.45 1018.40 1017.10 1015.70 1014.16 1012.48
1024.21 1024.80 1025.01 1025.40 1025.70 1026.01 1026.33 1026.73 1027.01 1027.12 1027.23 1027.41 1027.50 1027.30 1027.00 1027.18 1027.82 1027.72 1027.42 1027.02 1026.91 1026.75 1026.68 1026.44 1026.04 1025.82 1025.48 1025.03 1024.63 1024.25 1023.86 1023.26 1022.63 1021.96 1021.32 1020.56 1019.81 1018.97 1017.99 1016.82 1015.34 1013.73 1011.90
1024.37 1024.77 1025.29 1025.63 1025.83 1026.23 1026.57 1026.82 1027.07 1027.29 1027.48 1027.54 1027.48 1027.17 1026.88 1027.08 1027.14 1027.33 1026.95 1026.78 1026.48 1026.14 1026.04 1025.81 1025.48 1025.24 1024.72 1024.40 1023.99 1023.65 1023.26 1022.63 1021.95 1021.32 1020.67 1019.96 1019.21 1018.24 1017.24 1016.09 1014.54 1012.99 1011.15
1024.58 1024.87 1025.20 1025.65 1025.88 1026.10 1026.54 1026.97 1027.11 1027.18 1027.28 1027.54 1027.48 1027.28 1027.07 1027.11 1026.81 1026.54 1026.44 1026.20 1025.91 1025.36 1025.04 1025.11 1024.78 1024.18 1023.74 1023.48 1023.12 1022.84 1022.46 1021.74 1021.12 1020.56 1019.98 1019.30 1018.42 1017.40 1016.43 1015.23 1013.62 1011.79 1010.37
1024.47 1024.80 1025.32 1025.77 1026.11 1026.36 1026.59 1026.76 1026.91 1027.03 1027.14 1027.23 1027.10 1026.89 1026.66 1026.40 1026.03 1025.89 1025.66 1025.43 1025.01 1024.57 1024.29 1024.10 1023.75 1023.38 1022.88 1022.48 1022.07 1021.63 1021.19 1020.53 1020.07 1019.52 1019.13 1018.36 1017.45 1016.29 1015.23 1013.88 1012.31 1010.87 1009.76
1024.43 1024.92 1025.46 1025.73 1025.91 1025.99 1026.34 1026.60 1026.67 1026.71 1026.75 1026.47 1026.26 1026.18 1025.80 1025.51 1025.36 1025.04 1024.81 1024.54 1024.21 1023.89 1023.32 1023.01 1022.69 1022.25 1021.83 1021.37 1020.89 1020.37 1019.80 1019.13 1018.77 1018.21 1017.82 1016.99 1015.82 1014.71 1013.44 1012.46 1011.25 1010.13 1009.09
1024.17 1024.59 1025.04 1025.40 1025.97 1025.99 1026.04 1026.20 1026.29 1026.31 1026.08 1025.91 1025.54 1025.27 1025.04 1024.82 1024.60 1024.36 1024.06 1023.78 1023.49 1022.98 1022.59 1022.11 1021.58 1021.15 1020.71 1020.20 1019.44 1018.77 1018.18 1017.57 1016.91 1015.94 1015.21 1014.54 1013.86 1012.98 1012.16 1011.20 1010.21 1009.34 1008.31
Wind_Speed
5 5 6 6 6 7 7 7 6 6 7 8 8 9 9 12 12 10 10 11 11 9 9 9 10 9 7 8 8 7 7 9 12 10 11 12 15 16 17 17 16 15 12
5 5 6 6 6 6 6 7 7 7 7 8 8 9 11 11 11 11 11 10 9 10 10 10 11 9 11 10 8 11 9 9 11 18 13 12 13 15 15 18 15 14 16
5 5 5 5 5 6 6 6 7 7 8 9 9 9 11 11 11 11 10 9 9 9 9 10 10 11 10 10 9 9 8 9 10 11 13 10 11 12 15 12 14 15 13
5 5 5 5 5 5 6 6 7 6 8 8 8 9 11 10 11 11 9 9 8 9 9 10 10 11 12 11 10 11 11 10 10 10 12 11 11 12 11 14 16 12 14
5 5 5 5 4 5 6 6 6 6 7 7 7 8 9 10 9 11 9 7 8 8 8 9 8 11 16 18 10 12 12 11 10 11 11 12 12 13 14 13 15 15 15
5 5 5 5 4 5 5 5 5 6 7 7 7 7 9 8 16 18 11 7 8 8 8 9 8 10 13 19 20 21 16 13 13 12 11 15 16 17 15 14 15 17 19
6 5 4 5 5 4 4 5 5 6 5 6 6 6 7 8 16 18 15 6 7 8 9 9 9 8 11 12 16 18 15 20 18 14 15 15 19 17 18 19 17 17 18
7 6 5 6 5 4 3 5 5 4 5 4 5 6 6 7 15 17 14 6 7 7 8 8 8 9 13 15 13 13 12 12 12 11 14 15 15 18 16 17 19 20 16
8 8 7 7 4 4 4 4 3 4 5 4 4 5 5 5 13 16 11 6 7 7 8 7 8 10 22 24 14 12 12 10 13 21 22 25 25 24 22 13 12 14 15
9 8 7 6 5 5 3 4 2 3 5 3 4 5 5 5 11 15 13 5 7 7 7 8 14 18 22 22 12 11 12 14 15 15 14 15 16 16 22 12 11 14 14
8 7 6 4 3 5 3 2 2 4 3 2 3 2 4 6 6 13 15 7 6 6 7 7 8 22 21 20 19 11 15 18 16 11 11 10 11 11 11 11 12 11 14
8 7 6 3 3 4 3 2 3 2 2 3 4 4 3 4 7 11 15 14 13 6 7 7 9 19 18 18 13 21 23 17 9 9 9 10 11 11 12 13 15 14 13
7 7 5 5 4 3 5 3 3 3 3 3 3 2 1 3 3 10 12 14 12 8 7 12 17 16 16 12 18 20 15 8 9 9 10 10 11 12 15 15 15 18 17
7 7 7 5 4 2 3 3 3 3 3 3 2 2 1 2 3 4 3 4 8 8 9 7 11 11 12 11 9 10 9 9 9 9 10 11 10 11 12 12 15 15 17
6 5 6 5 5 3 4 3 3 3 3 3 1 1 2 3 4 10 10 6 5 9 5 3 4 5 6 6 6 7 7 8 8 9 10 11 12 12 12 12 13 14 14
7 5 3 4 4 3 2 2 5 4 3 3 3 2 1 6 11 12 13 14 14 13 4 2 3 5 6 6 7 7 7 8 8 9 9 10 12 12 13 12 12 12 15
6 6 3 4 4 3 3 3 2 2 2 3 2 5 6 8 11 11 12 12 11 8 1 2 2 5 6 6 6 7 8 8 10 8 9 10 11 12 14 12 12 12 14
5 5 4 3 3 3 3 2 2 2 1 2 5 6 5 10 12 10 11 8 4 5 1 2 3 3 5 6 6 7 7 8 8 8 9 10 10 10 12 12 12 14 14
5 4 3 4 3 3 2 2 2 1 1 1 2 3 5 11 11 10 9 2 3 3 3 3 3 3 3 4 6 6 7 8 8 9 8 9 10 10 12 12 12 17 18
4 6 4 3 3 3 2 2 1 1 0 1 1 2 3 3 2 2 2 2 2 3 3 3 4 4 4 3 5 5 7 8 8 8 8 9 9 9 11 13 12 14 14
4 4 5 3 3 3 2 2 2 1 2 2 3 3 11 2 3 3 4 4 3 4 4 4 4 5 4 4 4 4 6 8 8 8 8 9 9 10 10 11 12 13 14
4 4 4 3 2 2 3 2 2 2 3 3 3 4 12 1 3 4 4 5 5 5 4 4 5 4 6 7 7 7 8 9 9 9 9 9 9 11 10 11 12 13 14
4 4 3 3 3 3 2 2 3 3 3 4 3 4 3 4 4 4 5 5 5 5 4 4 4 7 6 5 6 7 8 10 9 9 10 10 11 11 10 12 13 14 13
4 4 3 3 2 3 3 3 3 4 4 4 4 5 5 5 5 6 6 5 5 5 4 5 6 9 9 8 7 8 8 10 9 10 12 11 11 13 12 13 14 15 14
4 3 3 4 4 4 3 3 4 4 5 5 5 5 5 5 5 5 5 5 5 5 8 7 7 9 11 11 12 15 16 20 15 15 10 13 15 18 15 13 15 15 15
4 5 4 3 3 3 3 4 5 5 5 5 5 5 5 5 6 6 6 5 5 7 8 8 10 13 15 13 15 17 18 19 17 19 13 11 12 12 12 15 19 14 15
Wind_Direction
67 60 62 57 53 56 56 44 39 43 33 36 39 45 40 50 37 34 36 33 34 23 25 16 16 6 14 17 4 351 353 349 320 325 322 326 326 326 325 324 320 319 299
65 67 57 53 60 64 59 54 37 46 44 48 51 50 53 45 39 39 32 28 28 30 22 22 21 16 15 5 4 8 347 337 330 319 325 325 329 325 322 324 321 315 313
80 72 67 61 61 61 61 53 51 49 43 45 49 52 59 45 35 27 28 22 24 29 24 22 20 15 11 5 2 356 353 335 323 315 314 319 320 324 322 321 316 318 316
97 88 73 65 65 66 61 62 59 54 60 54 46 54 67 48 39 29 14 25 26 35 31 24 20 25 9 6 8 358 348 339 331 324 322 322 327 330 321 322 319 316 318
115 102 95 75 62 64 66 59 57 52 60 67 62 52 64 51 34 32 10 28 34 30 29 26 22 35 15 17 358 352 345 342 334 331 325 325 333 334 330 324 311 310 311
120 115 110 98 79 72 74 72 71 61 54 52 56 67 59 50 38 33 30 22 34 26 22 20 15 21 16 5 360 356 353 347 337 331 328 326 325 325 320 318 310 312 312
133 121 103 102 93 62 70 72 52 64 61 57 55 43 76 47 35 33 32 22 31 22 22 13 10 12 0 356 354 354 354 349 344 341 332 324 316 319 314 309 305 298 292
124 125 129 110 105 96 83 83 70 73 67 56 58 53 56 42 32 32 30 25 29 21 18 13 6 8 354 354 357 351 352 345 341 337 321 313 311 317 316 311 316 299 287
150 146 136 125 117 113 94 81 55 68 73 72 75 72 56 43 28 29 33 24 18 15 7 7 358 4 356 356 355 348 341 331 332 331 326 323 324 329 333 328 333 328 315
153 143 129 138 129 116 96 90 75 76 83 72 66 79 60 60 21 26 31 20 10 9 353 360 5 2 356 354 353 352 336 339 341 334 330 325 325 327 334 337 328 321 314
135 128 127 141 119 95 111 109 86 74 82 77 68 84 64 63 20 22 15 27 15 6 351 357 357 350 351 352 358 344 342 342 337 332 322 319 326 328 329 328 322 313 310
137 140 138 148 122 133 129 92 77 73 102 88 70 53 40 55 16 17 9 14 7 9 352 349 346 345 348 351 356 348 349 347 333 327 326 331 331 329 328 321 316 309 295
139 146 145 137 143 146 99 82 97 60 65 55 64 57 5 26 28 4 5 3 359 7 344 348 343 345 351 353 350 351 351 341 335 333 332 327 326 323 320 320 317 314 305
154 155 151 141 133 75 103 100 93 62 59 58 66 28 339 5 357 310 8 347 351 359 7 355 344 350 358 356 351 350 345 339 337 332 328 323 324 325 327 327 322 323 318
147 152 147 133 106 104 86 84 93 88 113 130 174 132 68 337 313 335 349 347 346 345 38 359 338 351 348 347 347 337 335 335 335 333 326 327 327 326 327 328 320 320 318
157 151 136 119 100 106 111 126 133 110 80 90 52 61 44 336 337 332 344 342 353 352 40 341 332 339 338 335 337 333 329 329 331 327 325 323 322 323 322 322 318 317 316
135 128 113 112 118 126 116 113 117 359 30 176 16 1 351 347 338 331 346 353 349 18 63 301 297 319 322 325 327 325 322 323 322 318 320 316 317 316 321 319 320 316 316
100 104 118 121 119 121 131 129 141 153 186 292 343 327 344 340 332 341 346 21 352 345 243 253 270 279 314 314 313 312 311 312 314 313 312 308 309 311 315 315 318 315 316
140 139 135 132 120 118 139 154 160 178 219 248 335 347 2 327 323 348 349 157 226 268 274 294 269 275 269 288 298 300 298 302 303 303 298 301 305 308 309 310 310 311 313
92 132 139 135 141 159 151 154 180 191 210 305 306 271 301 347 342 297 263 241 264 259 265 262 274 273 268 264 290 289 295 297 295 294 295 297 299 303 303 306 307 308 306
146 141 152 153 160 159 152 181 189 177 228 241 245 249 278 181 249 260 277 279 262 268 268 258 268 269 258 263 266 274 284 287 286 288 291 294 299 299 298 295 297 298 298
150 151 166 170 146 164 192 174 191 211 231 246 269 272 294 353 245 253 260 263 260 249 245 249 261 243 268 272 278 282 282 282 285 286 289 293 296 294 294 293 293 294 306
155 155 158 171 181 186 191 221 219 220 239 245 253 272 270 261 255 253 258 260 260 265 257 245 255 277 270 253 257 262 270 273 275 281 286 290 290 289 290 290 292 300 302
162 166 172 182 175 194 207 229 234 231 234 245 247 249 252 253 256 257 256 257 259 262 254 254 255 264 275 272 269 266 263 266 269 273 276 280 281 285 284 285 296 293 309
163 176 185 191 195 200 217 235 234 237 240 239 248 246 245 250 258 261 260 259 260 264 276 273 267 268 270 270 269 271 270 275 274 271 265 262 266 274 281 291 294 304 299
177 180 189 190 210 214 216 231 238 235 239 245 245 247 249 254 256 257 261 256 261 268 273 275 275 274 276 277 275 276 277 280 278 275 279 276 281 287 286 287 294 297 294